Weather History for KPIR - June, 2013

Change the Weather History Date:

Tuesday, June 11, 2013

  Actual Average Record
Temperature  
Mean Temperature 71 °F 66 °F  
Max Temperature 79 °F 78 °F 102 °F (1976)
Min Temperature 63 °F 54 °F 38 °F (2011)
Degree Days  
Heating Degree Days 0 2  
Month to date heating degree days 54 33  
Since 1 June heating degree days 54 33  
Since 1 July heating degree days 7672 7270  
Cooling Degree Days 6 3  
Month to date cooling degree days 13 27  
Year to date cooling degree days 35 59  
Since 1 June cooling degree days 13 27  
Growing Degree Days 21 (Base 50)    
Moisture  
Dew Point 57 °F    
Average Humidity 70    
Maximum Humidity 93    
Minimum Humidity 46    
Precipitation  
Precipitation 0.00 in 0.13 in 1.46 in (1943)
Month to date precipitation 0.59 1.45  
Year to date precipitation 9.45 8.65  
Sea Level Pressure  
Sea Level Pressure 29.76 in    
Wind  
Wind Speed 19 mph (ENE)    
Max Wind Speed 30 mph    
Max Gust Speed 37 mph    
Visibility 10 miles    
Events      
T = Trace of Precipitation, MM = Missing Value Source: NWS Daily Summary

Daily Weather History Graph

Daily Weather History Graph

Search for Another Location

Airport or City:

Trip Planner

Search our weather history database for the weather conditions in past years. The results will help you decide how hot, cold, wet, or windy it might be!

Date:

Astronomy

Jun. 11, 2013 Rise Set
Actual Time 5:56 AM CDT 9:25 PM CDT
Civil Twilight 5:19 AM CDT 10:02 PM CDT
Nautical Twilight 4:31 AM CDT 10:50 PM CDT
Astronomical Twilight 3:30 AM CDT 11:51 PM CDT
Moon 8:46 AM CDT (6/11) 11:23 PM CDT (6/11)
Length of Visible Light 16h 42m
Length of Day
15h 29m
Waxing Crescent, 8% of the Moon is Illuminated
Jun 11
Waxing Crescent
Jun 16
First Quarter
Jun 23
Full
Jun 29
Last Quarter
Jul 8
New

Hourly Weather History & Observations

Time (CDT) Temp. Dew Point Humidity Pressure Visibility Wind Dir Wind Speed Gust Speed Precip Events Conditions
12:53 AM 64.9 °F 62.1 °F 90% 29.70 in 10.0 mi NE 6.9 mph - N/A   Clear
1:53 AM 66.0 °F 62.1 °F 87% 29.72 in 10.0 mi North 6.9 mph - N/A   Clear
2:53 AM 64.9 °F 61.0 °F 87% 29.70 in 10.0 mi NE 10.4 mph - N/A   Clear
3:53 AM 63.0 °F 61.0 °F 93% 29.78 in 10.0 mi NNW 10.4 mph - N/A   Clear
4:53 AM 64.0 °F 62.1 °F 93% 29.75 in 10.0 mi ENE 15.0 mph - N/A   Clear
5:53 AM 64.0 °F 59.0 °F 84% 29.75 in 10.0 mi ENE 15.0 mph - N/A   Clear
6:53 AM 64.0 °F 60.1 °F 87% 29.79 in 10.0 mi NE 20.7 mph 28.8 mph N/A   Clear
7:53 AM 66.0 °F 55.9 °F 70% 29.78 in 10.0 mi ENE 23.0 mph 31.1 mph N/A   Clear
8:53 AM 69.1 °F 53.1 °F 57% 29.79 in 10.0 mi ENE 24.2 mph 33.4 mph N/A   Clear
9:53 AM 73.0 °F 57.0 °F 57% 29.81 in 10.0 mi ENE 24.2 mph 28.8 mph N/A   Clear
10:53 AM 71.1 °F 57.0 °F 61% 29.80 in 10.0 mi East 18.4 mph 27.6 mph N/A   Clear
11:53 AM 75.9 °F 62.1 °F 62% 29.80 in 10.0 mi ESE 19.6 mph 25.3 mph N/A   Clear
12:53 PM 79.0 °F 64.0 °F 60% 29.81 in 10.0 mi NE 17.3 mph 24.2 mph N/A   Mostly Cloudy
1:53 PM 78.1 °F 63.0 °F 60% 29.80 in 10.0 mi East 18.4 mph 25.3 mph N/A   Mostly Cloudy
2:53 PM 79.0 °F 62.1 °F 56% 29.77 in 10.0 mi ENE 20.7 mph 27.6 mph N/A   Partly Cloudy
3:53 PM 79.0 °F 57.9 °F 48% 29.77 in 10.0 mi ENE 21.9 mph 33.4 mph N/A   Clear
4:53 PM 78.1 °F 57.0 °F 48% 29.75 in 10.0 mi ENE 24.2 mph 35.7 mph N/A   Clear
5:53 PM 77.0 °F 55.0 °F 47% 29.75 in 10.0 mi ENE 27.6 mph 35.7 mph N/A   Clear
6:53 PM 75.9 °F 54.0 °F 46% 29.77 in 10.0 mi ENE 23.0 mph 31.1 mph N/A   Partly Cloudy
7:53 PM 73.9 °F 54.0 °F 50% 29.73 in 10.0 mi ENE 23.0 mph 29.9 mph N/A   Clear
8:53 PM 72.0 °F 51.1 °F 48% 29.74 in 10.0 mi ENE 19.6 mph 28.8 mph N/A   Overcast
9:53 PM 68.0 °F 50.0 °F 52% 29.74 in 10.0 mi ENE 20.7 mph 26.5 mph N/A   Partly Cloudy
10:53 PM 66.9 °F 48.9 °F 52% 29.78 in 10.0 mi ENE 18.4 mph 25.3 mph N/A   Overcast
11:53 PM 64.9 °F 46.9 °F 52% 29.76 in 10.0 mi ENE 15.0 mph 25.3 mph N/A   Mostly Cloudy